Weather History for Grayling, MI

Change the Weather History Date:

Thursday, July 18, 2013

  Actual Average (KHTL) Record (KHTL)
Temperature  
Mean Temperature 82 °F 67 °F  
Max Temperature 91 °F 80 °F 98 °F (1942)
Min Temperature 73 °F 55 °F 33 °F (1925)
Degree Days  
Heating Degree Days 0 1  
Month to date heating degree days 30  
Since 1 June heating degree days 154  
Since 1 July heating degree days 30  
Cooling Degree Days 17 4  
Month to date cooling degree days 69  
Year to date cooling degree days 144  
Since 1 June cooling degree days 128  
Growing Degree Days 32 (Base 50)    
Moisture  
Dew Point 70 °F    
Average Humidity 71    
Maximum Humidity 98    
Minimum Humidity 41    
Precipitation  
Precipitation 0.00 in 0.09 in 2.23 in (1990)
Month to date precipitation 1.51  
Year to date precipitation 14.47  
Sea Level Pressure  
Sea Level Pressure 30.05 in    
Wind  
Wind Speed 6 mph (WSW)    
Max Wind Speed 14 mph    
Max Gust Speed 24 mph    
Visibility 10 miles    
Events Rain    
T = Trace of Precipitation, MM = Missing Value Source: NWS Daily Summary

Daily Weather History Graph

Daily Weather History Graph

Search for Another Location

Airport:

Trip Planner

Search our weather history database for the weather conditions in past years. The results will help you decide how hot, cold, wet, or windy it might be!

Date:

Astronomy

Jul. 18, 2013 Rise Set
Actual Time 6:10 AM EDT 9:19 PM EDT
Civil Twilight 5:35 AM EDT 9:54 PM EDT
Nautical Twilight 4:50 AM EDT 10:39 PM EDT
Astronomical Twilight 3:54 AM EDT 11:34 PM EDT
Moon 5:13 PM EDT (7/18) 2:02 AM EDT (7/18)
Length of Visible Light 16h 18m
Length of Day
15h 08m
Waxing Gibbous, 77% of the Moon is Illuminated
Jul 18
Waxing Gibbous
Jul 22
Full
Jul 29
Last Quarter
Aug 6
New
Aug 14
First Quarter

Hourly Weather History & Observations

Time (EDT) Temp. Heat Index Dew Point Humidity Pressure Visibility Wind Dir Wind Speed Gust Speed Precip Events Conditions
12:14 AM 76.1 °F - 71.4 °F 85% 30.17 in 10.0 mi WSW 4.6 mph - N/A   Clear
12:35 AM 76.1 °F - 71.6 °F 86% 30.18 in 10.0 mi WSW 4.6 mph - N/A   Clear
12:55 AM 76.1 °F - 72.0 °F 87% 30.17 in 10.0 mi WSW 4.6 mph - N/A   Clear
1:14 AM 76.1 °F - 72.0 °F 87% 30.17 in 10.0 mi West 5.8 mph - N/A   Clear
1:35 AM 76.1 °F - 72.5 °F 89% 30.17 in 10.0 mi WSW 4.6 mph - N/A   Clear
1:55 AM 76.1 °F - 72.7 °F 89% 30.16 in 10.0 mi West 6.9 mph - N/A   Clear
2:14 AM 76.1 °F - 72.7 °F 89% 30.16 in 10.0 mi WSW 5.8 mph - N/A   Clear
2:35 AM 75.9 °F - 72.5 °F 89% 30.15 in 10.0 mi West 5.8 mph - N/A   Clear
2:55 AM 74.3 °F - 71.2 °F 90% 30.14 in 10.0 mi WSW 4.6 mph - N/A   Clear
3:14 AM 73.6 °F - 70.7 °F 91% 30.14 in 10.0 mi WSW 3.5 mph - N/A   Clear
3:35 AM 73.6 °F - 71.2 °F 92% 30.14 in 10.0 mi WSW 4.6 mph - N/A   Clear
3:55 AM 73.6 °F - 71.4 °F 93% 30.14 in 10.0 mi West 3.5 mph - N/A   Clear
4:14 AM 73.6 °F - 71.6 °F 93% 30.14 in 10.0 mi West 4.6 mph - N/A   Clear
4:35 AM 73.6 °F - 72.1 °F 95% 30.13 in 10.0 mi WSW 4.6 mph - N/A   Clear
4:55 AM 73.6 °F - 72.1 °F 95% 30.14 in 10.0 mi WSW 4.6 mph - N/A   Clear
5:14 AM 73.6 °F - 72.3 °F 96% 30.13 in 10.0 mi WSW 5.8 mph - N/A   Scattered Clouds
5:35 AM 73.6 °F - 72.5 °F 96% 30.13 in 10.0 mi WSW 3.5 mph - N/A   Clear
5:55 AM 73.6 °F - 72.7 °F 97% 30.13 in 10.0 mi WSW 3.5 mph - N/A   Clear
6:14 AM 73.6 °F - 72.9 °F 98% 30.13 in 10.0 mi SW 3.5 mph - N/A   Clear
6:35 AM 73.6 °F - 73.0 °F 98% 30.13 in 7.0 mi Calm Calm - N/A   Clear
6:55 AM 73.6 °F - 72.9 °F 98% 30.13 in 10.0 mi WSW 3.5 mph - N/A   Clear
7:14 AM 73.6 °F - 72.3 °F 96% 30.13 in 10.0 mi WSW 4.6 mph - N/A   Clear
7:35 AM 74.7 °F - 72.3 °F 92% 30.12 in 10.0 mi SW 4.6 mph - N/A   Clear
7:55 AM 76.1 °F - 72.3 °F 88% 30.12 in 10.0 mi WSW 5.8 mph - N/A   Clear
8:14 AM 76.5 °F - 71.6 °F 85% 30.12 in 10.0 mi WSW 4.6 mph - N/A   Clear
8:35 AM 78.8 °F - 72.0 °F 79% 30.12 in 10.0 mi West 5.8 mph - N/A   Clear
8:55 AM 79.9 °F - 71.1 °F 74% 30.12 in 10.0 mi West 3.5 mph - N/A   Clear
9:14 AM 81.1 °F 84.9 °F 70.7 °F 70% 30.12 in 10.0 mi NW 6.9 mph - N/A   Clear
9:35 AM 82.6 °F 86.6 °F 70.2 °F 66% 30.11 in 10.0 mi West 3.5 mph - N/A   Clear
9:54 AM 85.1 °F 90.1 °F 70.7 °F 62% 30.11 in 10.0 mi WNW 8.1 mph - N/A   Clear
10:15 AM 88.5 °F 94.9 °F 71.6 °F 57% 30.11 in 10.0 mi West 9.2 mph - N/A   Clear
10:35 AM 88.7 °F 93.9 °F 70.2 °F 54% 30.11 in 10.0 mi West 5.8 mph - N/A   Clear
10:54 AM 88.7 °F 93.5 °F 69.4 °F 53% 30.11 in 10.0 mi West 6.9 mph - N/A   Clear
11:15 AM 88.7 °F 92.6 °F 68.4 °F 51% 30.10 in 10.0 mi West 8.1 mph - N/A   Clear
11:35 AM 88.7 °F 92.6 °F 68.4 °F 51% 30.10 in 10.0 mi WSW 6.9 mph 17.3 mph N/A   Scattered Clouds
11:54 AM 90.0 °F 93.2 °F 67.3 °F 47% 30.10 in 10.0 mi SW 8.1 mph - N/A   Scattered Clouds
12:14 PM 90.7 °F 92.8 °F 65.7 °F 43% 30.08 in 10.0 mi SW 9.2 mph - N/A   Scattered Clouds
12:35 PM 90.9 °F 94.0 °F 66.6 °F 45% 30.06 in 10.0 mi SW 11.5 mph - N/A   Scattered Clouds
12:54 PM 88.3 °F 92.0 °F 68.4 °F 51% 30.08 in 10.0 mi NW 12.7 mph 24.2 mph N/A Rain Light Rain
1:15 PM 76.6 °F - 72.0 °F 85% 30.08 in 5.0 mi North 3.5 mph - N/A Rain Light Rain
1:35 PM 79.5 °F - 72.3 °F 79% 30.07 in 10.0 mi Calm Calm - N/A   Mostly Cloudy
1:54 PM 79.2 °F - 74.1 °F 84% 30.07 in 10.0 mi ENE 5.8 mph - N/A   Overcast
2:15 PM 80.6 °F 84.7 °F 72.0 °F 75% 30.06 in 10.0 mi Calm Calm - N/A   Mostly Cloudy
2:35 PM 78.8 °F - 73.8 °F 84% 30.04 in 7.0 mi East 6.9 mph - N/A Rain Heavy Rain
2:54 PM 76.6 °F - 73.9 °F 91% 30.03 in 10.0 mi SSE 5.8 mph - N/A Rain Light Rain
3:15 PM 80.1 °F 84.5 °F 73.9 °F 81% 30.02 in 10.0 mi Calm Calm - N/A   Overcast
3:35 PM 81.7 °F 87.1 °F 73.6 °F 76% 30.01 in 10.0 mi SSE 3.5 mph - N/A   Mostly Cloudy
3:54 PM 82.4 °F 87.7 °F 72.7 °F 72% 30.01 in 10.0 mi Calm Calm - N/A   Mostly Cloudy
4:15 PM 83.1 °F 90.7 °F 75.2 °F 77% 30.00 in 10.0 mi East 3.5 mph - N/A   Mostly Cloudy
4:35 PM 88.3 °F 100.0 °F 76.5 °F 68% 29.99 in 10.0 mi ESE 3.5 mph - N/A   Scattered Clouds
4:54 PM 88.7 °F 97.2 °F 73.6 °F 61% 29.98 in 10.0 mi Calm Calm - N/A   Scattered Clouds
5:15 PM 91.0 °F 93.8 °F 66.4 °F 44% 29.96 in 10.0 mi SW 5.8 mph - N/A   Scattered Clouds
5:34 PM 88.7 °F 89.8 °F 63.9 °F 43% 29.95 in 10.0 mi SW 10.4 mph - N/A   Mostly Cloudy
5:54 PM 88.7 °F 90.1 °F 64.2 °F 44% 29.95 in 10.0 mi SW 8.1 mph 16.1 mph N/A   Scattered Clouds
6:15 PM 88.7 °F 90.1 °F 64.2 °F 44% 29.95 in 10.0 mi SW 6.9 mph 17.3 mph N/A   Scattered Clouds
6:34 PM 90.0 °F 91.0 °F 63.3 °F 41% 29.94 in 10.0 mi SW 9.2 mph 21.9 mph N/A   Clear
6:55 PM 88.7 °F 89.4 °F 62.8 °F 42% 29.93 in 10.0 mi SW 11.5 mph 18.4 mph N/A   Clear
7:15 PM 88.9 °F 90.7 °F 64.9 °F 45% 29.92 in 10.0 mi WSW 6.9 mph - N/A   Clear
7:34 PM 88.7 °F 90.1 °F 64.4 °F 44% 29.91 in 10.0 mi SW 9.2 mph 21.9 mph N/A   Scattered Clouds
7:55 PM 88.7 °F 90.4 °F 64.8 °F 45% 29.91 in 10.0 mi SW 11.5 mph 20.7 mph N/A   Mostly Cloudy
8:14 PM 88.7 °F 91.1 °F 66.4 °F 47% 29.90 in 10.0 mi SW 13.8 mph 19.6 mph N/A   Scattered Clouds
8:34 PM 88.5 °F 91.9 °F 67.6 °F 50% 29.90 in 10.0 mi SW 8.1 mph 18.4 mph N/A   Clear
8:55 PM 86.2 °F 88.4 °F 66.4 °F 51% 29.89 in 10.0 mi SW 12.7 mph 19.6 mph N/A   Clear
9:14 PM 85.1 °F 87.7 °F 66.7 °F 54% 29.90 in 10.0 mi SW 6.9 mph 17.3 mph N/A   Clear
9:34 PM 83.7 °F 86.0 °F 66.6 °F 56% 29.91 in 10.0 mi SW 9.2 mph - N/A   Clear
9:55 PM 82.6 °F 85.1 °F 66.7 °F 59% 29.91 in 10.0 mi SW 8.1 mph 16.1 mph N/A   Clear
10:14 PM 82.4 °F 85.0 °F 67.3 °F 60% 29.91 in 10.0 mi SSW 9.2 mph - N/A   Clear
10:35 PM 81.3 °F 84.0 °F 67.5 °F 63% 29.89 in 10.0 mi SSW 6.9 mph - N/A   Clear
10:55 PM 81.0 °F 83.8 °F 68.2 °F 65% 29.89 in 10.0 mi SW 8.1 mph - N/A   Clear
11:14 PM 80.2 °F 83.0 °F 68.2 °F 67% 29.89 in 10.0 mi SW 9.2 mph - N/A   Clear
11:35 PM 79.9 °F - 68.5 °F 68% 29.89 in 10.0 mi SW 8.1 mph - N/A   Clear
11:55 PM 79.9 °F - 68.5 °F 68% 29.89 in 10.0 mi SW 10.4 mph - N/A   Clear